Weather History for Victoria, BC

Change the Weather History Date:

Tuesday, May 13, 2014

  Actual Average Record
Temperature  
Mean Temperature 63 °F -  
Max Temperature 73 °F 64 °F 73 °F (2014)
Min Temperature 53 °F 46 °F 37 °F (2011)
Degree Days  
Heating Degree Days 2    
Growing Degree Days 13 (Base 50)    
Moisture  
Dew Point 49 °F    
Average Humidity 60    
Maximum Humidity 82    
Minimum Humidity 31    
Precipitation  
Precipitation 0.00 in 0.04 in - ()
Sea Level Pressure  
Sea Level Pressure 30.36 in    
Wind  
Wind Speed 4 mph ()    
Max Wind Speed 8 mph    
Max Gust Speed -    
Averages and records for this station are not official NWS values.
T = Trace of Precipitation, MM = Missing Value Source: Averaged Metar Reports

Daily Weather History Graph

Daily Weather History Graph

Search for Another Location

Airport:

Trip Planner

Search our weather history database for the weather conditions in past years. The results will help you decide how hot, cold, wet, or windy it might be!

Date:

Astronomy

May. 13, 2014 Rise Set
Actual Time 5:35 AM PDT 8:45 PM PDT
Civil Twilight 4:57 AM PDT 9:23 PM PDT
Nautical Twilight 4:09 AM PDT 10:12 PM PDT
Astronomical Twilight 3:07 AM PDT 11:14 PM PDT
Moon 7:47 PM PDT (5/13) 5:03 AM PDT (5/13)
Length of Visible Light 16h 25m
Length of Day
15h 10m
Waxing Gibbous, 99% of the Moon is Illuminated
May 13
Waxing Gibbous
May 14
Full
May 21
Last Quarter
May 28
New
Jun 5
First Quarter

Hourly Weather History & Observations

Time (PDT) Temp. Dew Point Humidity Pressure Visibility Wind Dir Wind Speed Gust Speed Precip Events Conditions
12:00 AM 59.0 °F 48.2 °F 67% 30.34 in 30.0 mi West 5.8 mph - N/A   Partly Cloudy
1:00 AM 57.2 °F 48.2 °F 72% 30.35 in 30.0 mi West 5.8 mph - N/A   Scattered Clouds
2:00 AM 57.2 °F 48.2 °F 72% 30.35 in 30.0 mi West 4.6 mph - N/A   Mostly Cloudy
3:00 AM 57.2 °F 48.2 °F 72% 30.36 in 30.0 mi West 4.6 mph - N/A   Mostly Cloudy
4:00 AM 57.2 °F 48.2 °F 72% 30.38 in 30.0 mi WSW 4.6 mph - N/A   Mostly Cloudy
5:00 AM 55 °F 50 °F 77% 30.36 in 28 mi North 1.2 mph - -   Mostly Cloudy
5:00 AM 55.4 °F 50.0 °F 82% 30.36 in 30.0 mi Calm Calm - N/A   Mostly Cloudy
6:00 AM 55.4 °F 48.2 °F 77% 30.37 in 30.0 mi Calm Calm - N/A   Mostly Cloudy
9:00 AM 64.4 °F 50.0 °F 59% 30.40 in 30.0 mi WNW 4.6 mph - N/A   Partly Cloudy
10:00 AM 66.2 °F 50.0 °F 56% 30.40 in 30.0 mi NNE 5.8 mph - N/A   Partly Cloudy
11:00 AM 67 °F 50 °F 44% 30.42 in 28 mi NE 6.9 mph - -   Scattered Clouds
11:00 AM 66.2 °F 50.0 °F 56% 30.42 in 30.0 mi NE 6.9 mph - N/A   Mostly Cloudy
12:00 PM 68.0 °F 50.0 °F 52% 30.40 in 30.0 mi NNE 5.8 mph - N/A   Scattered Clouds
1:00 PM 68.0 °F 50.0 °F 52% 30.40 in 30.0 mi East 8.1 mph - N/A   Mostly Cloudy
2:00 PM 69.8 °F 51.8 °F 53% 30.39 in 30.0 mi East 8.1 mph - N/A   Mostly Cloudy
3:00 PM 69.8 °F 51.8 °F 53% 30.37 in 30.0 mi East 6.9 mph - N/A   Scattered Clouds
4:00 PM 69.8 °F 51.8 °F 53% 30.35 in 30.0 mi ESE 5.8 mph - N/A   Partly Cloudy
5:00 PM 73 °F 49 °F 31% 30.35 in 28 mi East 3.5 mph - -   Clear
5:00 PM 73.4 °F 48.2 °F 41% 30.35 in 30.0 mi ENE 3.5 mph - N/A   Partly Cloudy
6:00 PM 73.4 °F 48.2 °F 41% 30.34 in 30.0 mi East 2.3 mph - N/A   Partly Cloudy
7:00 PM 69.8 °F 48.2 °F 46% 30.34 in 30.0 mi ENE 3.5 mph - N/A   Mostly Cloudy
8:00 PM 68.0 °F 46.4 °F 46% 30.33 in 30.0 mi East 3.5 mph - N/A   Mostly Cloudy
9:00 PM 59.0 °F 50.0 °F 72% 30.33 in 30.0 mi SW 4.6 mph - N/A   Mostly Cloudy
10:00 PM 59.0 °F 51.8 °F 77% 30.34 in 30.0 mi WNW 6.9 mph - N/A   Mostly Cloudy
11:00 PM 60 °F 50 °F 61% 30.34 in 28 mi West 2.3 mph - -   Clear
11:00 PM 60.8 °F 50.0 °F 68% 30.34 in 30.0 mi West 3.5 mph - N/A   Mostly Cloudy